Regional Weather Roundup
Issued by NWS Charleston, WV

Home | Current Version | Previous Version | Text Only | Print | Product List | Glossary Off
Versions: 1 2 3 4 5 6 7 8 9 10 11 12 13 14 15 16 17 18 19 20 21 22 23 24 25 26 27 28 29 30 31 32 33 34 35 36 37 38 39 40 41 42 43 44 45 46 47 48 49 50

000
ASUS41 KRLX 280010
RWRRLX
West Virginia Regional Weather Roundup
National Weather Service Charleston WV
700 PM EST FRI FEB 27 2015

Note: "fair" indicates few or no clouds below 12,000 feet with no
significant weather and/or obstructions to visibility.

WVZ003-280100-
Northern Panhandle of West Virginia

CITY           SKY/WX    TMP DP  RH WIND       PRES   REMARKS
WHEELING       CLEAR     14  -4  44 NW6       30.56R WCI   5
$$

WVZ009-280100-
Northwest West Virginia

CITY           SKY/WX    TMP DP  RH WIND       PRES   REMARKS
PARKERSBURG    CLEAR     19   0  43 N3        30.62R
$$

WVZ006-280100-
Western West Virginia

CITY           SKY/WX    TMP DP  RH WIND       PRES   REMARKS
HUNTINGTON     CLEAR     20   3  48 NE3       30.58S
$$

WVZ015-280100-
West Central West Virginia

CITY           SKY/WX    TMP DP  RH WIND       PRES   REMARKS
CHARLESTON     PTCLDY    20   5  52 N8        30.57S
$$

WVZ022-031-280100-
North Central West Virginia

CITY           SKY/WX    TMP DP  RH WIND       PRES   REMARKS
CLARKSBURG     CLEAR     18   2  49 W7        30.55R WCI   9
MORGANTOWN     CLEAR     18  -3  39 NW6       30.55R WCI  10
$$

WVZ025-035-042-045-280100-
Southern West Virginia

CITY           SKY/WX    TMP DP  RH WIND       PRES   REMARKS
BECKLEY        CLEAR     15   3  59 N6        30.43R WCI   6
LOGAN          MOCLDY    19   5  53 CALM      30.47R
BLUEFIELD      CLEAR     20   6  55 N3        30.39S
LEWISBURG      CLEAR     19   5  53 N5        30.45R
$$

WVZ047-280100-
Northern Mountains of West Virginia

CITY           SKY/WX    TMP DP  RH WIND       PRES   REMARKS
ELKINS         PTCLDY    11   2  67 CALM      30.48R
$$

WVZ052-280100-
Eastern Panhandle of West Virginia

CITY           SKY/WX    TMP DP  RH WIND       PRES   REMARKS
MARTINSBURG      N/A     25   3  38 NW14      30.54R
PETERSBURG     CLEAR     22   3  43 W7        30.56R
$$



USA.gov is the U.S. government's official web portal to all federal, state and local government web resources and services.